Home   Weather   Warren   Past weeks

Flag for USA Past Weather in Warren, Michigan, USA — Yesterday and Last 2 Weeks

Now
38 °F

Overcast.


Feels Like: 27 °F
Forecast: 28 / 46 °F
Wind: 22 mph from West

Location: Detroit City Airport

Current Time: Feb 25, 2017 at 11:13:59 am

Latest Report: Feb 25, 2017 at 9:53 am


Visibility: 10 mi

Pressure: 29.55 "Hg

Humidity: 70%

Dew Point: 29 °F

Location of WarrenLocation

Past Weather in Warren — Graph

°F

Warren Temperature Yesterday

Maximum temperature yesterday: 67 °F (at 2:53 pm)
Minimum temperature yesterday: 39 °F (at 1:35 am)
Average temperature yesterday: 50 °F

High & Low Weather Summary for the Past Weeks

 TemperatureHumidityPressure
High67 °F (Feb 18, 2:53 pm)100% (Feb 12, 12:53 am)30.95 "Hg (Feb 12, 12:53 am)
Low22 °F (Feb 10, 10:33 am)24% (Feb 19, 3:53 pm)29.42 "Hg (Feb 24, 9:53 pm)
Average42 °F71%29.85 "Hg
* Reported Feb 10 9:53 am — Feb 25 9:53 am, Warren, Weather by CustomWeather, © 2017

Note: Actual official high and low records may vary slightly from our data, if they occured in-between our weather recording intervals... More about our weather records

Advertising

Warren Weather History for the Previous 24 Hours

Scroll right to see more
 ConditionsComfort  
Time TempWeatherWind HumidityBarometerVisibility
9:53 am
Sat, Feb 25
38 °FOvercast.22 mph70%29.55 "Hg10 mi
9:27 am39 °FCloudy.16 mph73%29.54 "Hg10 mi
8:53 am40 °FMostly cloudy.13 mph80%29.54 "Hg10 mi
8:27 am40 °FMostly cloudy.15 mph80%29.53 "Hg10 mi
7:53 am40 °FOvercast.18 mph77%29.52 "Hg10 mi
6:53 am39 °FPassing clouds.8 mph76%29.51 "Hg10 mi
5:53 am39 °FClear.9 mph76%29.53 "Hg10 mi
4:53 am41 °FClear.10 mph70%29.52 "Hg10 mi
3:53 am42 °FPassing clouds.8 mph76%29.51 "Hg10 mi
3:23 am43 °FOvercast.12 mph74%29.52 "Hg10 mi
2:53 am44 °FOvercast.20 mph82%29.51 "Hg10 mi
1:53 am48 °FMostly cloudy.22 mph83%29.49 "Hg10 mi
12:53 am56 °FMostly cloudy.14 mph90%29.46 "Hg10 mi
12:20 am56 °FLight rain. Overcast.8 mph97%29.44 "Hg10 mi
11:53 pm
Fri, Feb 24
55 °FOvercast.6 mph96%29.43 "Hg10 mi
10:53 pm57 °FLight rain. Fog.14 mph90%29.45 "Hg3 mi
9:53 pm59 °FOvercast.10 mph75%29.42 "Hg10 mi
8:53 pm59 °FClear.10 mph78%29.44 "Hg10 mi
7:53 pm62 °FClear.13 mph70%29.45 "Hg10 mi
6:53 pm63 °FPassing clouds.13 mph70%29.48 "Hg10 mi
5:53 pm59 °FSunny.6 mph87%29.49 "Hg10 mi
4:53 pm62 °FPassing clouds.8 mph83%29.49 "Hg10 mi
4:16 pm60 °FLight rain. Fog.13 mph86%29.48 "Hg6 mi
3:53 pm67 °FOvercast.9 mph66%29.55 "Hg10 mi
2:53 pm67 °FSunny.10 mph68%29.52 "Hg10 mi
1:53 pm65 °FMostly cloudy.8 mph73%29.54 "Hg10 mi
12:53 pm60 °FPartly sunny.5 mph78%29.56 "Hg10 mi
11:53 am53 °FSunny.9 mph89%29.58 "Hg9 mi
11:16 am49 °FFog.9 mph100%29.58 "Hg5 mi
Weather by CustomWeather, © 2017

See weather overviewHow to use our weather pages